Regional Weather Roundup
Issued by NWS

Home | Current Version | Previous Version | Graphics & Text | Print | Product List | Glossary On
Versions: 1 2 3 4 5 6 7 8 9 10 11 12 13 14 15 16 17 18 19 20 21 22 23 24 25 26 27 28 29 30 31 32 33 34 35 36 37 38 39 40 41 42 43 44 45 46 47 48 49 50
000
ASUS43 KIND 290409
RWRIN

WEATHER ROUNDUP FOR INDIANA
NATIONAL WEATHER SERVICE INDIANAPOLIS IN
1200 AM EDT FRI AUG 29 2014

NOTE: "FAIR" INDICATES FEW OR NO CLOUDS BELOW 12,000 FEET WITH NO
SIGNIFICANT WEATHER AND/OR OBSTRUCTIONS TO VISIBILITY.

* - STATION DOES NOT REPORT WEATHER SUCH AS PRECIPITATION OR FOG.

+ - STATION NOT QUALITY CONTROLLED BY THE NATIONAL WEATHER SERVICE.
    USE DATA WITH CAUTION...ESPECIALLY DEWPOINT AND RELATIVE
    HUMIDITY OBSERVATIONS.

INZ001>003-010>013-019-020-290500-
NORTHWEST INDIANA

CITY           SKY/WX    TMP DP  RH WIND       PRES   REMARKS
GARY /AIRPORT/ LGT RAIN  73  66  79 SE5       30.05F
KNOX *+        CLOUDY    68  63  84 SE5       30.07R
LA PORTE +     CLOUDY    69  64  84 SE5       30.08S
MICHIGAN CITY+ CLOUDY    70  61  73 SE3       30.07S
MONTICELLO +   MOCLDY    70  65  85 E6        30.06S
RENSSELAER +   CLOUDY    70  68  94 E5        30.07R
VALPARAISO     CLOUDY    71  64  78 SE6       30.07R

$$

LMZ046-743>745-290500-
SOUTHERN LAKE MICHIGAN

STATION/POSITION TIME  TEMP WIND        PRES
                       AIR  DIR/SP/G
                 (UTC) (F)  (DEG/KT/KT) (MB)
MICHIGAN CITY    0400   71  110/  6/  8   N/A

$$

INZ004-005-014>016-021>024-290500-
NORTH CENTRAL INDIANA

CITY           SKY/WX    TMP DP  RH WIND       PRES   REMARKS
GOSHEN         PTCLDY    69  62  78 SE6       30.09R
LOGANSPORT +   MOCLDY    64  61  88 E7        30.08S
PERU/GRISSOM   PTCLDY    67  67 100 E6        30.08S
ROCHESTER +    MOCLDY    70  64  83 SE5       30.09S
SOUTH BEND     MOCLDY    71  62  73 E5        30.08S
WARSAW +       PTCLDY    64  61  88 CALM      30.09S

$$

INZ006>009-017-018-025>027-290500-
NORTHEAST INDIANA

CITY           SKY/WX    TMP DP  RH WIND       PRES   REMARKS
ANGOLA *+      CLEAR     64  57  77 SE6       30.12R
AUBURN +       CLEAR     64  55  72 E5        30.12S
FORT WAYNE     PTCLDY    66  61  84 E9        30.11R
HUNTINGTON +   CLEAR     67  62  84 E6        30.09S

$$

INZ028-029-035-036-043>045-051>053-290500-
WEST CENTRAL INDIANA

CITY           SKY/WX    TMP DP  RH WIND       PRES   REMARKS
GREENCASTLE +  MOCLDY    70  66  88 CALM      30.07S
LAFAYETTE      MOCLDY    69  65  86 E6        30.06R
TERRE HAUTE    MOCLDY    73  68  84 E3        30.04S

$$

INZ030>032-037>040-046>048-054>057-064-065-290500-
CENTRAL INDIANA

CITY           SKY/WX    TMP DP  RH WIND       PRES   REMARKS
CP ATTERBURY + PTCLDY    68  64  88 CALM      30.08R
FRANKFORT +    MOCLDY   N/A N/A N/A E6        30.08S
GREENWOOD *+   MOCLDY    73  66  78 E5        30.08
INDIANAPOLIS   MOCLDY    74  63  68 E8        30.06R
-EAGLE CREEK   MOCLDY    74  62  66 E5        30.07R
KOKOMO *+      PTCLDY    66  63  88 SE5       30.09R
MARION +       CLEAR     67  61  80 SE6       30.10R
MT COMFORT *+  PTCLDY    68  68 100 E5        30.08S
SHELBYVILLE    PTCLDY    71  65  81 E6        30.07S
ZIONSVILLE +   MOCLDY    70  64  79 CALM      30.09R

$$

INZ033-034-041-042-049-050-058-059-290500-
EAST CENTRAL INDIANA

CITY           SKY/WX    TMP DP  RH WIND       PRES   REMARKS
MUNCIE         CLEAR     67  62  84 SE8       30.09F

$$

INZ060-061-067>069-081>083-085>088-290500-
SOUTHWEST INDIANA

CITY           SKY/WX    TMP DP  RH WIND       PRES   REMARKS
EVANSVILLE     MOCLDY    75  71  87 CALM      30.02S
WASHINGTON +   MOCLDY    74  74  98 CALM      30.02F

$$

INZ062-063-066-070>080-084-089>092-290500-
SOUTH CENTRAL AND SOUTHEAST INDIANA

CITY           SKY/WX    TMP DP  RH WIND       PRES   REMARKS
BEDFORD +      MOCLDY    75  66  73 E5        30.05
BLOOMINGTON    PTCLDY    74  69  85 E3        30.06S
NORTH VERNON + PTCLDY    72  68  88 E5        30.08

$$




USA.gov is the U.S. government's official web portal to all federal, state and local government web resources and services.